Location: Leipzig
(51.3392°N, 12.3528°E)
Time: 11:22:51
(UTC+02:00)

ISS - Visible Passes

Search period start: 13 May 2021 00:00
Search period end: 23 May 2021 00:00
Orbit: 417 x 422 km, 51.6° (Epoch: 13 May)

Date Brightness Start Highest point End Pass type
(mag) Time Alt. Az. Time Alt. Az. Time Alt. Az.
13 May -1.4 00:32:07 15° E 00:32:07 15° E 00:32:48 10° E visible
13 May -3.8 02:05:02 37° W 02:06:15 83° N 02:09:39 10° E visible
13 May -3.8 03:39:42 10° W 03:43:04 64° SSW 03:46:25 10° ESE visible
14 May -3.8 01:18:38 80° W 01:18:48 87° N 01:22:11 10° E visible
14 May -3.9 02:52:16 10° W 02:55:39 79° SSW 02:59:01 10° ESE visible
14 May -2.7 04:29:17 10° W 04:32:10 26° SSW 04:35:03 10° SSE visible
14 May -3.0 22:51:47 10° SSW 22:54:46 30° SSE 22:55:36 26° ESE visible
15 May -3.9 00:27:59 10° WSW 00:31:21 84° S 00:34:44 10° E visible
15 May -3.9 02:04:49 10° W 02:08:12 90° S 02:11:36 10° E visible
15 May -3.2 03:41:42 10° W 03:44:51 36° SSW 03:47:59 10° SE visible
15 May -2.5 22:04:50 10° SSW 22:07:29 22° SE 22:10:08 10° E visible
15 May -3.9 23:40:34 10° WSW 23:43:55 70° SSE 23:47:17 10° E visible
16 May -3.8 01:17:22 10° W 01:20:45 84° N 01:24:08 10° E visible
16 May -3.6 02:54:13 10° W 02:57:30 49° SSW 03:00:47 10° SE visible
16 May -1.9 04:32:04 10° WSW 04:33:43 13° SW 04:35:22 10° SSW visible
16 May -3.7 22:53:13 10° WSW 22:56:31 55° SSE 22:59:50 10° E visible
17 May -3.8 00:29:54 10° W 00:33:18 83° N 00:36:41 10° E visible
17 May -3.9 02:06:45 10° W 02:10:06 64° SSW 02:13:27 10° ESE visible
17 May -2.3 03:44:02 10° W 03:46:29 19° SW 03:48:56 10° S visible
17 May -3.4 22:05:57 10° SW 22:09:08 41° SSE 22:12:21 10° E visible
17 May -3.8 23:42:27 10° W 23:45:50 87° N 23:49:13 10° E visible
18 May -3.9 01:19:18 10° W 01:22:41 78° SSW 01:22:56 72° SE visible
18 May -3.9 22:55:01 10° WSW 22:58:23 84° S 23:01:46 10° E visible
19 May -3.9 00:31:51 10° W 00:35:14 90° SW 00:36:32 35° E visible
19 May -1.5 02:08:45 10° W 02:09:26 15° W 02:09:26 15° W visible
19 May -3.8 22:07:36 10° WSW 22:10:57 71° SSE 22:14:19 10° E visible
19 May -3.8 23:44:24 10° W 23:47:47 84° N 23:50:21 16° E visible
20 May -2.6 01:21:15 10° W 01:23:17 31° W 01:23:17 31° W visible
20 May -3.7 22:56:55 10° W 23:00:18 83° N 23:03:41 10° E visible
21 May -3.9 00:33:46 10° W 00:37:07 64° SSW 00:37:12 63° S visible
21 May -3.7 22:09:28 10° W 22:12:50 87° N 22:16:13 10° E visible
21 May -3.9 23:46:19 10° W 23:49:42 78° SSW 23:51:10 31° ESE visible
22 May -1.5 01:23:20 10° W 01:24:06 15° W 01:24:06 15° W visible
22 May -3.8 22:58:51 10° W 23:02:14 89° SSW 23:05:10 13° E visible
